Weather Roundup
Issued by NWS Chicago, IL

Home | Current Version | Previous Version | Text Only | Print | Product List | Glossary Off
Versions: 1 2 3 4 5 6 7 8 9 10 11 12 13 14 15 16 17 18 19 20 21 22 23 24 25 26 27 28 29 30 31 32 33 34 35 36 37 38 39 40 41 42 43 44 45 46 47 48 49 50

000
NZUS59 KLOT 282206
HRRLOT

CHICAGO AREA WEATHER ROUNDUP
NATIONAL WEATHER SERVICE CHICAGO/ROMEOVILLE IL
400 PM CST FRI NOV 28 2014

NOTE: "FAIR" INDICATES FEW OR NO CLOUDS BELOW 12,000 FEET WITH NO
SIGNIFICANT WEATHER AND/OR OBSTRUCTIONS TO VISIBILITY.

* THESE STATIONS ARE NOT UNDER NWS QUALITY CONTROL. THEY ALSO MAY NOT
  REPORT WEATHER SUCH AS PRECIPITATION OR FOG.

ILZ005-006-012>014-019>023-282300-
NORTHEAST ILLINOIS

CITY           SKY/WX    TMP DP  RH WIND       PRES   REMARKS
OHARE          CLOUDY    31  24  75 S16G24    29.98F WCI  20
MIDWAY         CLOUDY    33  23  66 S13       30.00S WCI  24
AURORA         CLOUDY    33  26  75 SE10      29.97F HAZE    WCI  25
LANSING*       CLOUDY    31  23  71 S12G21    30.01F WCI  22
JOLIET*        CLOUDY    32  28  83 SE7       30.00S WCI  26
WAUKEGAN       CLOUDY    30  21  69 S13       29.97F WCI  20
DUPAGE AIRPORT CLOUDY    31  25  78 SE12      29.97F WCI  22
WHEELING       CLOUDY    31  23  72 S14       30.00F WCI  21
KANKAKEE*      MOCLDY    35  29  77 S15       30.00S WCI  26
MORRIS*        CLOUDY    35  32  87 S12       29.98S WCI  27
LEWIS AIRPORT* CLOUDY    32  26  81 S13       29.98F WCI  22
NORTHERLY IS     N/A     31  21  66 S9          N/A  WCI  23
$$

WIZ051-052-058>065-066-070>072-282300-
SOUTHEAST WISCONSIN

CITY           SKY/WX    TMP DP  RH WIND       PRES   REMARKS
MILWAUKEE      MOCLDY    29  18  63 S8        29.98F WCI  21
KENOSHA*       MOCLDY    29  21  72 S7        29.98S WCI  22
RACINE*        MOCLDY    30  20  66 S9        29.99F WCI  22
BURLINGTON     CLOUDY    27  20  75 S5        29.97S WCI  22
WAUKESHA       MOCLDY    25  16  68 SE12      29.98S WCI  14
WEST BEND      MOCLDY    27  19  74 S6        29.97S WCI  20
$$

INZ001>003-010>013-019-020-282300-
NORTHWEST INDIANA

CITY           SKY/WX    TMP DP  RH WIND       PRES   REMARKS
GARY*          CLOUDY    32  21  64 SE12      30.02F WCI  23
MICHIGAN CITY* NOT AVBL
RENSSELAER*    NOT AVBL
VALPARAISO     CLOUDY    30  20  66 SE12G22   30.03F WCI  20
$$

LMZ740>746-282300-
SOUTHERN LAKE MICHIGAN

STATION/POSITION TIME  SKY/WX   TEMP WIND        PRES    VSBY
                                AIR  DIR/SP/G
                 (UTC)          (F)  (DEG/KT/KT) (MB)    (MI)
HARRISON CRIB    2200            31  170/ 23/ 26   N/A
BURNHAM HARBOR   2200            31  170/  9/ 18   N/A
CALUMET HARBOR   2200            31  160/ 10/ 17 1014.9F
BURNS HARBOR     NOT AVBL
MICHIGAN CITY    2200            30  130/ 15/ 24   N/A
$$

ABBREVIATIONS USED IN REMARKS
   TC - TEMPERATURE IN CELSIUS
  WCI - WIND CHILL INDEX
   HX - HEAT INDEX
  VSB - VISIBILITY
$$



USA.gov is the U.S. government's official web portal to all federal, state and local government web resources and services.